Skip Page Navigation
NASA JPL Caltech
NASA Logo - Jet Propulsion Laboratory + View the NASA Portal
+ Near-Earth Object (NEO) Program
Search JPL
JPL Home Earth Solar System Stars & Galaxies Technology
JPL Solar System Dynamics
BODIES ORBITS EPHEMERIDES TOOLS PHYSICAL DATA DISCOVERY FAQ SITE MAP
JPL Small-Body Database Browser
Search: [ help ]  
30444 Shemp (2000 NY1)
Classification: Main-belt Asteroid          SPK-ID: 2030444
Ephemeris | Orbit Diagram | Orbital Elements | Physical Parameters | Discovery Circumstances | Close-Approach Data ]

[ show orbit diagram ]
Orbital Elements at Epoch 2457600.5 (2016-Jul-31.0) TDB
Reference: JPL 16 (heliocentric ecliptic J2000)
 Element Value Uncertainty (1-sigma)   Units 
e .1696284294439125 6.45e-08  
a 2.772670343693354 2.1856e-08 au
q 2.302346627926937 1.8369e-07 au
i 8.015981456146299 7.592e-06 deg
node 300.4564333318609 3.789e-05 deg
peri 44.20423804965541 4.3231e-05 deg
M 130.3598981248369 1.9122e-05 deg
tp 2456989.857124605140
(2014-Nov-28.35712461)
8.8054e-05 JED
period 1686.342489556349
4.62
1.9939e-05
5.459e-08
d
yr
n .2134797659606563 2.5242e-09 deg/d
Q 3.242994059459771 2.5563e-08 au
  Orbit Determination Parameters
   # obs. used (total)      764  
   data-arc span      8971 days (24.56 yr)  
   first obs. used      1991-08-07  
   last obs. used      2016-02-28  
   planetary ephem.      DE431  
   SB-pert. ephem.      SB431-BIG16  
   condition code      0  
   fit RMS      .56307  
   data source      ORB  
   producer      Otto Matic  
   solution date      2016-Mar-24 17:03:58  

Additional Information
 Earth MOID = 1.30125 au 
 Jupiter MOID = 2.16998 au 
 T_jup = 3.301 
[ show covariance matrix ]

Ephemeris | Orbit Diagram | Orbital Elements | Physical Parameters | Discovery Circumstances | Close-Approach Data ]

Physical Parameter Table
Parameter Symbol Value Units Sigma Reference Notes
absolute magnitude H 14.0 mag n/a MPO309390  

30444 Shemp           Discovered 2000 July 5 by J. Broughton at Reedy Creek Observatory.
Brooklyn-born Shemp Howard (Samuel Horwitz, 1895-1955) of Three Stooges fame was an original member during their 1920s vaudeville years. In 1946 he appeared on screen to replace his ailing brother Curly. Like Curly, Shemp was a naturally gifted comedian who brought his own style of comedy to the act.
NOTE: some special characters may not display properly (any characters within {} are an attempt to place the proper accent above a character)
Reference: 20020427/MPCPages.arcLast Updated: 2003-10-02

[ show close-approach data ]
Alternate Designations
 2000 NY1 = 1991 PC17 
Ephemeris | Orbit Diagram | Orbital Elements | Physical Parameters | Discovery Circumstances | Close-Approach Data ]
ABOUT SSD CREDITS/AWARDS PRIVACY/COPYRIGHT GLOSSARY LINKS
FirstGov 2016-May-01 08:02 UT
(server date/time)  
NASA Home Page
Site Manager:   Ryan S. Park
Webmaster  Alan B. Chamberlin